Location: Newark
(35.2672°N, 80.7344°W)
Time: 17:55:29
(UTC+00:00)

Explorer 7 - Visible Passes

Search period start: 29 January 2020 00:00
Search period end: 08 February 2020 00:00
Orbit: 485 x 679 km, 50.3° (Epoch: 29 January)

Date Brightness Start Highest point End Pass type
(mag) Time Alt. Az. Time Alt. Az. Time Alt. Az.
30 Jan 8.7 00:22:06 10° S 00:23:42 17° SSE 00:23:42 17° SSE visible
31 Jan 7.7 00:26:06 10° SSW 00:29:07 32° SSE 00:29:07 32° SSE visible
01 Feb 6.7 00:30:38 10° SW 00:34:27 63° SSE 00:34:27 63° SSE visible
02 Feb 6.7 00:35:30 10° WSW 00:39:31 71° NW 00:39:43 69° NNW visible
03 Feb 7.6 00:40:40 10° WSW 00:44:30 41° NW 00:44:54 40° NNW visible
04 Feb 8.3 00:46:06 10° W 00:49:32 27° NNW 00:50:01 26° NNW visible
05 Feb 8.8 00:51:47 10° WNW 00:54:39 19° NNW 00:55:03 18° NNW visible
06 Feb 9.2 00:57:42 10° NW 00:59:51 14° NNW 01:00:02 14° NNW visible
06 Feb 8.0 23:19:53 10° WSW 23:23:45 36° NNW 23:27:25 10° NE visible
07 Feb 9.4 01:03:55 10° NNW 01:04:57 11° NNW 01:04:57 11° NNW visible
07 Feb 8.6 23:25:24 10° W 23:28:48 24° NNW 23:32:06 10° NNE visible
